Time,TemperatureF,DewpointF,PressureIn,WindDirection,WindDirectionDegrees,WindSpeedMPH,WindSpeedGustMPH,Humidity,HourlyPrecipIn,Conditions,Clouds,dailyrainin,SoftwareType,DateUTC
2013-10-28 00:10:00,39.2,35.0,28.09,South,187,0.0,-999.0,86,-99.99,,,0.00,weatherlink.com 1.10,2013-10-28 04:10:00,
2013-10-28 00:25:00,39.4,36.0,28.08,South,174,0.0,-999.0,86,-99.99,,,0.00,weatherlink.com 1.10,2013-10-28 04:25:00,
2013-10-28 00:40:00,39.8,36.0,28.08,South,182,0.0,-999.0,86,-99.99,,,0.00,weatherlink.com 1.10,2013-10-28 04:40:00,
2013-10-28 00:55:00,40.4,36.0,28.08,South,185,1.0,-999.0,85,-99.99,,,0.00,weatherlink.com 1.10,2013-10-28 04:55:00,
2013-10-28 01:10:00,40.5,36.0,28.08,SSW,194,0.0,-999.0,84,-99.99,,,0.00,weatherlink.com 1.10,2013-10-28 05:10:00,
2013-10-28 01:25:00,40.4,36.0,28.08,SSW,192,0.0,-999.0,83,-99.99,,,0.00,weatherlink.com 1.10,2013-10-28 05:25:00,
2013-10-28 01:40:00,40.1,35.0,28.08,SSW,200,0.0,-999.0,83,-99.99,,,0.00,weatherlink.com 1.10,2013-10-28 05:40:00,
2013-10-28 01:55:00,40.1,35.0,28.08,SSW,194,0.0,-999.0,83,-99.99,,,0.00,weatherlink.com 1.10,2013-10-28 05:55:00,
2013-10-28 02:10:00,40.5,35.0,28.08,SSW,202,5.0,-999.0,82,-99.99,,,0.00,weatherlink.com 1.10,2013-10-28 06:10:00,
2013-10-28 02:25:00,40.7,35.0,28.07,South,190,3.0,-999.0,81,-99.99,,,0.00,weatherlink.com 1.10,2013-10-28 06:25:00,
2013-10-28 02:40:00,40.7,35.0,28.07,SSW,196,0.0,-999.0,80,-99.99,,,0.00,weatherlink.com 1.10,2013-10-28 06:40:00,
2013-10-28 02:55:00,40.8,35.0,28.08,SSW,192,0.0,-999.0,80,-99.99,,,0.00,weatherlink.com 1.10,2013-10-28 06:55:00,
2013-10-28 03:10:00,41.1,35.0,28.07,South,171,2.0,-999.0,79,-99.99,,,0.00,weatherlink.com 1.10,2013-10-28 07:10:00,
2013-10-28 03:25:00,41.1,35.0,28.08,South,191,3.0,-999.0,78,-99.99,,,0.00,weatherlink.com 1.10,2013-10-28 07:25:00,
2013-10-28 03:40:00,40.7,34.0,28.08,SSW,199,5.0,-999.0,78,-99.99,,,0.00,weatherlink.com 1.10,2013-10-28 07:40:00,
2013-10-28 03:55:00,40.4,34.0,28.08,SSW,192,0.0,-999.0,79,-99.99,,,0.00,weatherlink.com 1.10,2013-10-28 07:55:00,
2013-10-28 04:10:00,40.2,35.0,28.08,South,188,0.0,-999.0,80,-99.99,,,0.00,weatherlink.com 1.10,2013-10-28 08:10:00,
2013-10-28 04:25:00,40.4,35.0,28.08,SSW,197,5.0,-999.0,80,-99.99,,,0.00,weatherlink.com 1.10,2013-10-28 08:25:00,
2013-10-28 04:40:00,41.4,35.0,28.07,SW,215,7.0,-999.0,79,-99.99,,,0.00,weatherlink.com 1.10,2013-10-28 08:40:00,
2013-10-28 04:55:00,42.0,36.0,28.09,SW,234,6.0,-999.0,79,-99.99,,,0.00,weatherlink.com 1.10,2013-10-28 08:55:00,
2013-10-28 05:11:00,42.8,37.0,28.09,SW,221,7.0,-999.0,79,-99.99,,,0.00,weatherlink.com 1.10,2013-10-28 09:11:00,
2013-10-28 05:26:00,42.8,37.0,28.10,SW,236,6.0,-999.0,79,-99.99,,,0.00,weatherlink.com 1.10,2013-10-28 09:26:00,
2013-10-28 05:41:00,42.6,37.0,28.11,SW,230,4.0,-999.0,79,-99.99,,,0.00,weatherlink.com 1.10,2013-10-28 09:41:00,
2013-10-28 05:56:00,42.2,36.0,28.11,SW,236,7.0,-999.0,80,-99.99,,,0.00,weatherlink.com 1.10,2013-10-28 09:56:00,
2013-10-28 06:11:00,41.8,36.0,28.12,SW,218,0.0,-999.0,81,-99.99,,,0.00,weatherlink.com 1.10,2013-10-28 10:11:00,
2013-10-28 06:26:00,42.1,36.0,28.13,SW,236,0.0,-999.0,80,-99.99,,,0.00,weatherlink.com 1.10,2013-10-28 10:26:00,
2013-10-28 06:41:00,42.2,36.0,28.13,West,268,4.0,-999.0,78,-99.99,,,0.00,weatherlink.com 1.10,2013-10-28 10:41:00,
2013-10-28 06:56:00,42.4,36.0,28.14,West,259,6.0,-999.0,78,-99.99,,,0.00,weatherlink.com 1.10,2013-10-28 10:56:00,
2013-10-28 07:11:00,42.3,36.0,28.15,WSW,254,5.0,-999.0,78,-99.99,,,0.00,weatherlink.com 1.10,2013-10-28 11:11:00,
2013-10-28 07:26:00,41.9,36.0,28.16,West,261,3.0,-999.0,79,-99.99,,,0.00,weatherlink.com 1.10,2013-10-28 11:26:00,
2013-10-28 07:41:00,41.6,36.0,28.16,WSW,258,3.0,-999.0,80,-99.99,,,0.00,weatherlink.com 1.10,2013-10-28 11:41:00,
2013-10-28 07:56:00,41.7,36.0,28.17,West,269,2.0,-999.0,80,-99.99,,,0.00,weatherlink.com 1.10,2013-10-28 11:56:00,
2013-10-28 08:11:00,42.6,37.0,28.18,West,280,3.0,-999.0,80,-99.99,,,0.00,weatherlink.com 1.10,2013-10-28 12:11:00,
2013-10-28 08:26:00,42.8,37.0,28.19,West,272,8.0,-999.0,80,-99.99,,,0.00,weatherlink.com 1.10,2013-10-28 12:26:00,
2013-10-28 08:41:00,42.9,37.0,28.20,West,276,2.0,-999.0,81,-99.99,,,0.00,weatherlink.com 1.10,2013-10-28 12:41:00,
2013-10-28 08:56:00,43.1,38.0,28.21,West,267,3.0,-999.0,81,-99.99,,,0.00,weatherlink.com 1.10,2013-10-28 12:56:00,
2013-10-28 09:11:00,43.5,38.0,28.23,West,275,0.0,-999.0,81,-99.99,,,0.00,weatherlink.com 1.10,2013-10-28 13:11:00,
2013-10-28 09:26:00,43.8,39.0,28.23,West,265,7.0,-999.0,82,-99.99,,,0.00,weatherlink.com 1.10,2013-10-28 13:26:00,
2013-10-28 09:41:00,44.8,39.0,28.24,WNW,294,5.0,-999.0,81,-99.99,,,0.00,weatherlink.com 1.10,2013-10-28 13:41:00,
2013-10-28 09:56:00,45.0,40.0,28.24,West,277,3.0,-999.0,81,-99.99,,,0.00,weatherlink.com 1.10,2013-10-28 13:56:00,
2013-10-28 10:11:00,44.8,39.0,28.25,WNW,290,2.0,-999.0,81,-99.99,,,0.00,weatherlink.com 1.10,2013-10-28 14:11:00,
2013-10-28 10:26:00,44.8,40.0,28.25,NW,306,2.0,-999.0,82,-99.99,,,0.00,weatherlink.com 1.10,2013-10-28 14:26:00,
2013-10-28 10:41:00,44.5,39.0,28.26,NNE,24,8.0,-999.0,82,-99.99,,,0.00,weatherlink.com 1.10,2013-10-28 14:41:00,
2013-10-28 10:56:00,43.6,39.0,28.27,NW,315,5.0,-999.0,83,-99.99,,,0.00,weatherlink.com 1.10,2013-10-28 14:56:00,
2013-10-28 11:11:00,43.2,38.0,28.28,NNW,331,9.0,-999.0,82,-99.99,,,0.00,weatherlink.com 1.10,2013-10-28 15:11:00,
2013-10-28 11:26:00,43.3,37.0,28.28,NNW,327,7.0,-999.0,79,-99.99,,,0.00,weatherlink.com 1.10,2013-10-28 15:26:00,
2013-10-28 11:41:00,43.8,37.0,28.29,NNW,330,8.0,-999.0,78,-99.99,,,0.00,weatherlink.com 1.10,2013-10-28 15:41:00,
2013-10-28 11:56:00,43.5,37.0,28.30,NNW,336,10.0,-999.0,79,-99.99,,,0.00,weatherlink.com 1.10,2013-10-28 15:56:00,
2013-10-28 12:11:00,43.3,37.0,28.30,NNW,327,4.0,-999.0,78,-99.99,,,0.00,weatherlink.com 1.10,2013-10-28 16:11:00,
2013-10-28 12:27:00,43.8,37.0,28.30,NNW,329,0.0,-999.0,78,-99.99,,,0.00,weatherlink.com 1.10,2013-10-28 16:27:00,
2013-10-28 12:42:00,44.7,37.0,28.30,NNW,346,9.0,-999.0,75,-99.99,,,0.00,weatherlink.com 1.10,2013-10-28 16:42:00,
2013-10-28 12:57:00,44.8,37.0,28.31,NNW,345,3.0,-999.0,74,-99.99,,,0.00,weatherlink.com 1.10,2013-10-28 16:57:00,
2013-10-28 13:12:00,44.9,37.0,28.31,NW,325,0.0,-999.0,73,-99.99,,,0.00,weatherlink.com 1.10,2013-10-28 17:12:00,
2013-10-28 13:27:00,45.5,38.0,28.31,NNW,335,0.0,-999.0,74,-99.99,,,0.00,weatherlink.com 1.10,2013-10-28 17:27:00,
2013-10-28 13:42:00,45.6,36.0,28.31,NNW,340,0.0,-999.0,69,-99.99,,,0.00,weatherlink.com 1.10,2013-10-28 17:42:00,
2013-10-28 13:57:00,45.6,36.0,28.31,NW,322,0.0,-999.0,69,-99.99,,,0.00,weatherlink.com 1.10,2013-10-28 17:57:00,
2013-10-28 14:12:00,45.7,33.0,28.31,North,360,0.0,-999.0,61,-99.99,,,0.00,weatherlink.com 1.10,2013-10-28 18:12:00,
2013-10-28 14:27:00,45.9,33.0,28.31,NW,311,1.0,-999.0,60,-99.99,,,0.00,weatherlink.com 1.10,2013-10-28 18:27:00,
2013-10-28 14:42:00,45.8,29.0,28.31,NNW,331,4.0,-999.0,53,-99.99,,,0.00,weatherlink.com 1.10,2013-10-28 18:42:00,
2013-10-28 14:57:00,45.9,28.0,28.32,NNW,327,6.0,-999.0,49,-99.99,,,0.00,weatherlink.com 1.10,2013-10-28 18:57:00,
2013-10-28 15:12:00,45.7,26.0,28.32,NW,313,0.0,-999.0,46,-99.99,,,0.00,weatherlink.com 1.10,2013-10-28 19:12:00,
2013-10-28 15:27:00,45.6,28.0,28.32,NNW,338,6.0,-999.0,50,-99.99,,,0.00,weatherlink.com 1.10,2013-10-28 19:27:00,
2013-10-28 15:42:00,45.2,27.0,28.33,NNW,334,5.0,-999.0,49,-99.99,,,0.00,weatherlink.com 1.10,2013-10-28 19:42:00,
2013-10-28 15:57:00,44.5,28.0,28.34,North,9,5.0,-999.0,53,-99.99,,,0.00,weatherlink.com 1.10,2013-10-28 19:57:00,
2013-10-28 16:12:00,44.1,26.0,28.34,North,360,0.0,-999.0,50,-99.99,,,0.00,weatherlink.com 1.10,2013-10-28 20:12:00,
2013-10-28 16:27:00,43.4,24.0,28.35,North,360,0.0,-999.0,46,-99.99,,,0.00,weatherlink.com 1.10,2013-10-28 20:27:00,
2013-10-28 16:42:00,42.1,24.0,28.35,NW,310,0.0,-999.0,49,-99.99,,,0.00,weatherlink.com 1.10,2013-10-28 20:42:00,
2013-10-28 16:57:00,41.6,25.0,28.36,NNW,331,0.0,-999.0,52,-99.99,,,0.00,weatherlink.com 1.10,2013-10-28 20:57:00,
2013-10-28 17:12:00,41.6,25.0,28.36,NW,318,0.0,-999.0,52,-99.99,,,0.00,weatherlink.com 1.10,2013-10-28 21:12:00,
2013-10-28 17:27:00,41.2,25.0,28.35,NNW,327,0.0,-999.0,53,-99.99,,,0.00,weatherlink.com 1.10,2013-10-28 21:27:00,
2013-10-28 17:42:00,41.0,26.0,28.36,North,355,0.0,-999.0,55,-99.99,,,0.00,weatherlink.com 1.10,2013-10-28 21:42:00,
2013-10-28 17:57:00,40.5,26.0,28.36,NNW,335,0.0,-999.0,57,-99.99,,,0.00,weatherlink.com 1.10,2013-10-28 21:57:00,
2013-10-28 18:12:00,39.7,27.0,28.36,NNW,327,0.0,-999.0,61,-99.99,,,0.00,weatherlink.com 1.10,2013-10-28 22:12:00,
2013-10-28 18:27:00,38.9,28.0,28.36,NNW,328,0.0,-999.0,64,-99.99,,,0.00,weatherlink.com 1.10,2013-10-28 22:27:00,
2013-10-28 18:42:00,38.2,27.0,28.37,NNW,328,0.0,-999.0,65,-99.99,,,0.00,weatherlink.com 1.10,2013-10-28 22:42:00,
2013-10-28 18:57:00,37.2,28.0,28.37,NNW,328,0.0,-999.0,69,-99.99,,,0.00,weatherlink.com 1.10,2013-10-28 22:57:00,
2013-10-28 19:12:00,36.0,27.0,28.38,NNW,328,0.0,-999.0,70,-99.99,,,0.00,weatherlink.com 1.10,2013-10-28 23:12:00,
2013-10-28 19:27:00,35.7,27.0,28.38,NNW,328,0.0,-999.0,70,-99.99,,,0.00,weatherlink.com 1.10,2013-10-28 23:27:00,
2013-10-28 19:42:00,35.6,27.0,28.38,NNW,328,0.0,-999.0,71,-99.99,,,0.00,weatherlink.com 1.10,2013-10-28 23:42:00,
2013-10-28 19:57:00,35.1,27.0,28.38,NNW,328,0.0,-999.0,72,-99.99,,,0.00,weatherlink.com 1.10,2013-10-28 23:57:00,
2013-10-28 20:12:00,34.8,28.0,28.38,NNW,328,0.0,-999.0,77,-99.99,,,0.00,weatherlink.com 1.10,2013-10-29 00:12:00,
2013-10-28 20:27:00,33.9,28.0,28.38,NNW,328,0.0,-999.0,78,-99.99,,,0.00,weatherlink.com 1.10,2013-10-29 00:27:00,
2013-10-28 20:42:00,33.9,27.0,28.39,NNW,328,0.0,-999.0,77,-99.99,,,0.00,weatherlink.com 1.10,2013-10-29 00:42:00,
2013-10-28 20:57:00,34.1,27.0,28.39,NNW,328,0.0,-999.0,76,-99.99,,,0.00,weatherlink.com 1.10,2013-10-29 00:57:00,
2013-10-28 21:12:00,33.8,27.0,28.39,NNW,327,0.0,-999.0,76,-99.99,,,0.00,weatherlink.com 1.10,2013-10-29 01:12:00,
2013-10-28 21:28:00,33.0,27.0,28.39,NNW,327,0.0,-999.0,78,-99.99,,,0.00,weatherlink.com 1.10,2013-10-29 01:28:00,
2013-10-28 21:43:00,32.3,27.0,28.40,NNW,327,0.0,-999.0,82,-99.99,,,0.00,weatherlink.com 1.10,2013-10-29 01:43:00,
2013-10-28 21:58:00,31.4,27.0,28.41,NNW,328,0.0,-999.0,83,-99.99,,,0.00,weatherlink.com 1.10,2013-10-29 01:58:00,
2013-10-28 22:13:00,31.0,27.0,28.41,NNW,328,0.0,-999.0,85,-99.99,,,0.00,weatherlink.com 1.10,2013-10-29 02:13:00,
2013-10-28 22:28:00,30.7,27.0,28.41,NNW,328,0.0,-999.0,85,-99.99,,,0.00,weatherlink.com 1.10,2013-10-29 02:28:00,
2013-10-28 22:43:00,30.7,27.0,28.41,NNW,327,0.0,-999.0,86,-99.99,,,0.00,weatherlink.com 1.10,2013-10-29 02:43:00,
2013-10-28 22:58:00,30.5,27.0,28.41,NNW,327,0.0,-999.0,86,-99.99,,,0.00,weatherlink.com 1.10,2013-10-29 02:58:00,
2013-10-28 23:13:00,30.2,27.0,28.41,NNW,328,0.0,-999.0,86,-99.99,,,0.00,weatherlink.com 1.10,2013-10-29 03:13:00,
2013-10-28 23:28:00,30.0,27.0,28.41,NNW,327,0.0,-999.0,87,-99.99,,,0.00,weatherlink.com 1.10,2013-10-29 03:28:00,
2013-10-28 23:43:00,29.5,26.0,28.41,NNW,328,0.0,-999.0,87,-99.99,,,0.00,weatherlink.com 1.10,2013-10-29 03:43:00,
2013-10-28 23:58:00,29.2,26.0,28.40,NNW,327,0.0,-999.0,87,-99.99,,,0.00,weatherlink.com 1.10,2013-10-29 03:58:00,